AKEBONO (EXOS-D)

Last updated on Fri Oct 16 2020 05:50:44 GMT+0000 (Coordinated Universal Time)

1 19822U 89016A 20289.41323479 .00010825 -36407-7 18865-3 0 9995 2 19822 75.0049 280.3666 1707911 110.9092 268.2770 12.13247938 54122

Satellite not in orbit

AKEBONO (EXOS-D)